When you browse on this site, cookies collect data to enhance your experience and personalize the content and advertising you see.
Visit our Privacy Policy to learn more. By continuing to use the site, you agree to this use of cookies and data.
EN

Hourly Weather Oisterwijk

Today, 8 August, Saturday

Time Temperature Precipitation Wind Pressure Humidity
00:00 +24°C° 0 mm 2 mps 763 mmHg 48%
01:00 +24°C° 0 mm 2 mps 763 mmHg 48%
02:00 +23°C° 0 mm 1 mps 762 mmHg 49%
03:00 +22°C° 0 mm 1 mps 762 mmHg 50%
04:00 +23°C° 0 mm 1 mps 763 mmHg 52%
05:00 +24°C° 0 mm 1 mps 763 mmHg 54%
06:00 +25°C° 0 mm 1 mps 763 mmHg 58%
07:00 +27°C° 0 mm 1 mps 763 mmHg 53%
08:00 +29°C° 0 mm 1 mps 763 mmHg 48%
09:00 +31°C° 0 mm 1 mps 763 mmHg 44%
10:00 +32°C° 0 mm 2 mps 763 mmHg 40%
11:00 +34°C° 0 mm 2 mps 763 mmHg 37%
12:00 +36°C° 0 mm 2 mps 763 mmHg 33%
13:00 +36°C° 0 mm 2 mps 763 mmHg 33%
14:00 +36°C° 0 mm 2 mps 763 mmHg 33%
15:00 +36°C° 0 mm 2 mps 762 mmHg 33%
16:00 +34°C° 0 mm 2 mps 762 mmHg 39%
17:00 +33°C° 0 mm 3 mps 762 mmHg 45%
18:00 +30°C° 0 mm 3 mps 762 mmHg 52%
19:00 +29°C° 0 mm 3 mps 762 mmHg 53%
20:00 +28°C° 0 mm 3 mps 762 mmHg 55%
21:00 +26°C° 0 mm 3 mps 762 mmHg 56%
22:00 +26°C° 0 mm 3 mps 762 mmHg 61%
23:00 +25°C° 0 mm 3 mps 762 mmHg 66%

Tomorrow, 9 August, Sunday

Time Temperature Precipitation Wind Pressure Humidity
00:00 +24°C° 0 mm 3 mps 762 mmHg 72%
01:00 +24°C° 0 mm 2 mps 762 mmHg 73%
02:00 +24°C° 0 mm 2 mps 762 mmHg 75%
03:00 +24°C° 0 mm 2 mps 762 mmHg 76%
04:00 +24°C° 0 mm 2 mps 762 mmHg 76%
05:00 +24°C° 0 mm 2 mps 762 mmHg 76%
06:00 +25°C° 0 mm 3 mps 762 mmHg 76%
07:00 +26°C° 0 mm 2 mps 762 mmHg 71%
08:00 +28°C° 0 mm 2 mps 762 mmHg 66%
09:00 +29°C° 0 mm 2 mps 762 mmHg 61%
10:00 +30°C° 0 mm 2 mps 762 mmHg 56%
11:00 +33°C° 0 mm 3 mps 761 mmHg 51%
12:00 +34°C° 0 mm 3 mps 761 mmHg 47%
13:00 +34°C° 0 mm 3 mps 761 mmHg 46%
14:00 +35°C° 0 mm 3 mps 761 mmHg 46%
15:00 +35°C° 0 mm 3 mps 760 mmHg 45%
16:00 +34°C° 0 mm 3 mps 760 mmHg 51%
17:00 +33°C° 0 mm 3 mps 760 mmHg 57%
18:00 +30°C° 0 mm 3 mps 760 mmHg 63%
19:00 +29°C° 0.4 mm 3 mps 760 mmHg 66%
20:00 +27°C° 0.4 mm 3 mps 760 mmHg 69%
21:00 +25°C° 0.4 mm 2 mps 760 mmHg 72%
22:00 +25°C° 0.4 mm 2 mps 760 mmHg 74%
23:00 +24°C° 0.4 mm 2 mps 760 mmHg 76%

Day after tomorrow, 10 August, Monday

Time Temperature Precipitation Wind Pressure Humidity
00:00 +24°C° 0.4 mm 1 mps 760 mmHg 78%
01:00 +24°C° 0.1 mm 1 mps 760 mmHg 79%
02:00 +24°C° 0.1 mm 2 mps 760 mmHg 79%
03:00 +23°C° 0.1 mm 2 mps 760 mmHg 80%
04:00 +24°C° 0 mm 2 mps 759 mmHg 80%
05:00 +24°C° 0 mm 2 mps 759 mmHg 80%
06:00 +24°C° 0 mm 2 mps 759 mmHg 80%
07:00 +26°C° 0 mm 2 mps 759 mmHg 73%
08:00 +27°C° 0 mm 2 mps 759 mmHg 67%
09:00 +29°C° 0 mm 3 mps 760 mmHg 60%
10:00 +31°C° 0 mm 2 mps 759 mmHg 55%
11:00 +32°C° 0 mm 2 mps 759 mmHg 50%
12:00 +35°C° 0 mm 2 mps 759 mmHg 44%
13:00 +35°C° 0 mm 2 mps 759 mmHg 43%
14:00 +35°C° 0 mm 2 mps 759 mmHg 41%
15:00 +36°C° 0 mm 2 mps 759 mmHg 39%
16:00 +34°C° 0.1 mm 2 mps 759 mmHg 45%
17:00 +32°C° 0.1 mm 2 mps 758 mmHg 51%
18:00 +31°C° 0.1 mm 2 mps 758 mmHg 57%
19:00 +29°C° 0.6 mm 2 mps 759 mmHg 61%
20:00 +27°C° 0.6 mm 2 mps 759 mmHg 65%
21:00 +26°C° 0.6 mm 2 mps 759 mmHg 68%
22:00 +25°C° 0.1 mm 2 mps 759 mmHg 70%
23:00 +25°C° 0.1 mm 2 mps 759 mmHg 72%

11 August, Tuesday

Time Temperature Precipitation Wind Pressure Humidity
00:00 +25°C° 0.1 mm 2 mps 759 mmHg 73%
01:00 +24°C° 0 mm 2 mps 759 mmHg 74%
02:00 +24°C° 0 mm 2 mps 759 mmHg 75%
03:00 +24°C° 0 mm 2 mps 759 mmHg 77%
04:00 +24°C° 0 mm 2 mps 759 mmHg 77%
05:00 +24°C° 0 mm 2 mps 759 mmHg 77%
06:00 +25°C° 0 mm 2 mps 759 mmHg 77%
07:00 +27°C° 0 mm 2 mps 759 mmHg 70%
08:00 +29°C° 0 mm 2 mps 760 mmHg 62%
09:00 +31°C° 0 mm 2 mps 760 mmHg 55%
10:00 +32°C° 0 mm 2 mps 760 mmHg 51%
11:00 +34°C° 0 mm 2 mps 760 mmHg 46%
12:00 +35°C° 0 mm 2 mps 759 mmHg 42%
13:00 +36°C° 0 mm 2 mps 759 mmHg 41%
14:00 +36°C° 0 mm 2 mps 759 mmHg 40%
15:00 +36°C° 0 mm 2 mps 759 mmHg 39%
16:00 +35°C° 0 mm 2 mps 759 mmHg 44%
17:00 +32°C° 0 mm 2 mps 759 mmHg 49%
18:00 +31°C° 0 mm 2 mps 759 mmHg 54%
19:00 +30°C° 0 mm 2 mps 759 mmHg 56%
20:00 +29°C° 0 mm 2 mps 759 mmHg 58%
21:00 +27°C° 0 mm 3 mps 759 mmHg 60%
22:00 +27°C° 0 mm 3 mps 759 mmHg 61%
23:00 +26°C° 0 mm 3 mps 759 mmHg 62%

12 August, Wednesday

Time Temperature Precipitation Wind Pressure Humidity
00:00 +26°C° 0 mm 3 mps 759 mmHg 63%
01:00 +25°C° 0 mm 3 mps 759 mmHg 65%
02:00 +25°C° 0 mm 3 mps 759 mmHg 68%
03:00 +24°C° 0 mm 3 mps 759 mmHg 70%
04:00 +25°C° 0 mm 3 mps 758 mmHg 71%
05:00 +25°C° 0 mm 3 mps 758 mmHg 72%
06:00 +25°C° 0 mm 3 mps 758 mmHg 73%
07:00 +27°C° 0 mm 3 mps 758 mmHg 68%
08:00 +29°C° 0 mm 3 mps 758 mmHg 63%
09:00 +30°C° 0 mm 4 mps 758 mmHg 58%
10:00 +33°C° 0 mm 4 mps 758 mmHg 52%
11:00 +34°C° 0 mm 4 mps 758 mmHg 47%
12:00 +36°C° 0 mm 4 mps 757 mmHg 42%
13:00 +36°C° 0 mm 4 mps 757 mmHg 41%
14:00 +36°C° 0 mm 3 mps 757 mmHg 41%
15:00 +36°C° 0 mm 3 mps 757 mmHg 40%
16:00 +35°C° 0 mm 3 mps 756 mmHg 44%
17:00 +34°C° 0 mm 3 mps 756 mmHg 48%
18:00 +33°C° 0 mm 4 mps 756 mmHg 52%
19:00 +29°C° 0.9 mm 3 mps 756 mmHg 60%
20:00 +27°C° 0.9 mm 3 mps 756 mmHg 69%
21:00 +25°C° 0.9 mm 3 mps 757 mmHg 77%
22:00 +24°C° 1.7 mm 3 mps 757 mmHg 81%
23:00 +24°C° 1.7 mm 2 mps 757 mmHg 84%

13 August, Thursday

Time Temperature Precipitation Wind Pressure Humidity
00:00 +23°C° 1.7 mm 2 mps 757 mmHg 88%
01:00 +23°C° 1.2 mm 2 mps 757 mmHg 88%
02:00 +23°C° 1.2 mm 2 mps 756 mmHg 88%
03:00 +23°C° 1.2 mm 2 mps 756 mmHg 88%
04:00 +23°C° 0.3 mm 2 mps 756 mmHg 88%
05:00 +23°C° 0.3 mm 2 mps 756 mmHg 88%
06:00 +23°C° 0.3 mm 1 mps 757 mmHg 88%
07:00 +25°C° 0.2 mm 2 mps 757 mmHg 83%
08:00 +26°C° 0.2 mm 2 mps 757 mmHg 79%
09:00 +27°C° 0.2 mm 3 mps 757 mmHg 75%
10:00 +27°C° 0.7 mm 3 mps 757 mmHg 72%
11:00 +28°C° 0.7 mm 4 mps 758 mmHg 69%
12:00 +28°C° 0.7 mm 5 mps 758 mmHg 66%
13:00 +28°C° 0.2 mm 4 mps 758 mmHg 63%
14:00 +28°C° 0.2 mm 4 mps 758 mmHg 60%
15:00 +28°C° 0.2 mm 4 mps 758 mmHg 57%
16:00 +26°C° 0 mm 4 mps 759 mmHg 62%
17:00 +25°C° 0 mm 4 mps 759 mmHg 67%
18:00 +22°C° 0 mm 4 mps 759 mmHg 72%
19:00 +21°C° 0 mm 3 mps 760 mmHg 76%
20:00 +20°C° 0 mm 2 mps 760 mmHg 79%
21:00 +20°C° 0 mm 1 mps 760 mmHg 82%
22:00 +19°C° 0 mm 1 mps 760 mmHg 83%
23:00 +19°C° 0 mm 1 mps 761 mmHg 84%
Show more